Wind_Speed
8 13 16 17 18 18 18 18 19 19 19 20 19 20 20 20 21 20 20 19 18 17 17 16 15 16 16 16 16 16 17 17 17 16 14 13 16 17 14 14 13 13 14
15 16 17 18 19 19 19 19 19 19 19 19 19 20 20 20 20 20 19 18 17 17 16 15 15 14 14 13 13 14 15 14 13 10 10 10 10 11 12 12 13 13 11
18 19 20 20 20 19 19 19 19 19 19 19 19 19 20 21 20 19 19 18 17 17 16 15 15 14 13 12 12 12 13 12 12 11 5 10 10 10 11 12 12 11 10
21 22 21 21 21 21 20 19 20 19 20 19 18 17 18 19 18 16 16 16 16 16 15 14 14 14 13 13 13 14 15 13 10 8 9 11 9 8 9 10 10 9 8
23 23 22 21 21 22 21 20 19 19 18 18 17 17 16 15 14 14 14 14 14 14 14 13 14 15 15 15 15 15 18 16 14 14 17 11 9 9 8 9 9 7 6
25 23 22 22 22 21 21 20 18 18 17 15 16 15 14 15 15 15 14 15 15 14 14 13 14 15 16 15 15 13 17 17 16 16 16 15 14 12 11 10 7 5 5
25 23 22 22 21 20 19 18 16 16 16 14 15 15 16 16 17 17 18 18 19 18 18 18 19 20 21 20 20 15 14 15 16 15 12 11 12 11 12 8 8 9 7
27 24 22 20 20 19 18 19 17 18 19 18 18 18 18 19 21 22 22 22 21 21 18 17 14 17 19 20 20 20 15 16 16 16 14 12 10 11 8 8 8 8 8
25 23 22 21 20 20 21 21 21 22 23 22 23 23 22 21 22 21 19 20 19 19 19 18 18 14 15 18 18 16 15 15 19 21 20 20 16 13 12 8 9 9 10
23 21 20 19 18 20 21 19 19 17 17 18 19 20 21 17 21 19 18 17 15 17 18 18 17 16 17 16 16 18 15 19 22 23 22 21 21 19 16 15 8 9 10
20 17 17 19 19 17 18 18 17 16 14 15 16 14 15 17 19 18 18 17 17 18 18 19 21 21 24 20 20 20 20 23 24 25 24 22 21 20 20 21 22 19 15
22 20 17 16 16 15 16 15 14 14 15 15 16 15 17 18 19 18 17 17 16 17 17 17 17 18 20 23 21 21 22 23 27 28 24 22 21 20 22 22 21 22 21
22 19 15 12 13 14 14 14 15 16 17 20 21 20 20 20 18 17 16 15 15 15 17 18 20 21 16 18 18 17 19 21 24 27 25 24 22 21 21 20 22 21 21
16 13 11 10 14 14 16 17 20 20 19 20 22 20 19 18 16 16 16 15 16 15 15 17 17 16 18 16 12 14 15 18 21 24 26 25 23 20 21 22 20 22 22
13 13 11 13 16 17 19 20 21 22 22 22 21 18 16 15 14 13 14 14 14 13 14 15 14 13 15 20 17 14 15 15 20 26 31 27 25 22 21 22 21 21 22
15 14 13 15 17 19 20 20 23 22 22 21 19 18 14 13 13 13 13 14 15 12 11 13 15 13 14 17 18 17 15 16 21 22 23 27 26 24 24 22 21 20 19
16 16 17 19 23 24 23 24 22 20 19 19 17 14 13 14 12 11 12 15 15 12 10 12 12 11 14 12 16 16 21 27 27 29 26 24 26 24 21 22 21 19 19
20 21 24 25 22 22 22 21 20 18 18 17 14 13 12 13 12 11 13 15 14 14 13 14 14 16 17 15 14 22 29 30 29 28 25 23 22 21 21 20 21 19 17
24 25 24 23 20 20 22 22 19 16 16 16 14 12 12 11 10 9 10 13 12 14 15 13 15 18 20 20 28 31 29 28 28 27 27 25 22 19 18 19 19 19 18
25 22 22 24 26 26 26 23 20 15 14 12 12 11 8 7 7 6 7 10 11 13 14 13 13 18 19 24 29 33 31 29 27 28 26 25 24 23 21 19 18 17 17
26 27 28 28 26 27 26 23 19 17 13 11 9 8 8 7 5 5 6 8 10 13 14 13 13 16 21 10 10 18 24 24 23 21 22 22 21 21 20 19 18 16 15
31 28 27 27 26 24 23 21 17 16 12 11 9 8 6 6 6 6 7 8 9 10 12 13 11 12 17 17 4 4 3 2 15 18 17 19 19 18 21 19 17 18 16
31 30 28 28 26 24 23 21 21 16 16 15 10 8 8 7 8 6 7 7 8 9 12 12 11 11 9 15 17 5 3 1 4 4 15 17 17 17 18 16 16 15 16
32 30 29 28 27 25 24 25 26 26 21 16 12 11 9 6 7 6 6 6 7 8 9 10 10 11 9 9 9 13 12 8 2 3 4 13 15 15 15 16 15 14 16
33 31 30 27 25 23 28 29 26 23 19 17 15 13 10 9 5 6 5 5 6 6 7 7 8 9 9 10 9 5 6 7 9 3 2 10 14 12 11 12 15 16 17
33 30 29 27 24 31 27 25 24 22 22 23 21 18 14 10 7 4 4 5 5 5 5 5 6 6 7 8 8 8 9 4 4 4 2 4 8 12 7 9 14 16 18
Wind_Direction
110 127 127 119 113 109 104 99 97 92 87 83 78 75 73 71 72 72 70 66 62 60 63 61 63 71 71 70 70 70 68 69 67 61 65 73 80 90 75 74 75 77 78
123 124 123 114 107 105 104 102 100 96 88 82 78 78 77 74 72 70 69 69 67 62 57 61 62 61 64 64 65 65 63 59 59 63 62 69 72 81 82 81 76 72 74
125 124 120 116 112 106 101 99 98 95 88 82 77 75 77 71 67 68 65 60 59 56 55 53 53 55 55 57 56 55 49 45 40 52 101 77 74 81 82 85 85 79 76
122 122 122 119 118 113 108 107 100 93 92 90 86 81 82 80 75 67 67 66 62 55 49 48 47 45 45 45 44 41 40 38 34 52 93 87 68 68 77 78 82 81 78
121 120 120 122 120 119 118 114 111 106 95 92 89 83 77 77 72 68 64 58 55 51 48 42 40 36 32 31 34 33 35 39 53 95 106 78 75 70 87 89 93 97 95
118 120 123 122 121 118 115 114 112 106 100 93 85 78 72 69 67 65 60 51 46 44 43 45 43 40 37 34 34 33 46 51 68 90 101 98 75 61 61 72 79 80 94
119 119 120 120 119 118 119 116 114 113 107 99 91 82 70 68 69 66 64 61 57 55 55 55 59 57 49 47 48 50 54 71 74 75 71 58 60 44 44 47 58 59 63
123 122 123 125 123 122 122 116 111 108 99 89 80 77 78 77 80 76 72 72 68 61 57 56 63 62 51 50 56 57 53 76 73 64 54 49 50 44 42 35 28 43 50
124 122 121 122 128 126 121 119 115 106 98 87 81 81 85 86 85 78 75 74 68 63 54 51 61 56 55 51 56 58 63 68 69 69 61 54 50 46 43 51 35 27 27
120 122 124 122 118 115 113 115 114 107 103 99 96 93 93 86 75 69 65 65 60 57 51 48 50 50 46 45 53 61 81 76 73 72 71 68 60 55 51 49 46 36 29
116 118 123 122 117 120 121 117 113 103 98 100 100 99 90 78 71 68 65 62 57 56 53 54 53 51 50 53 58 66 76 77 72 71 72 68 64 61 61 58 54 51 47
122 129 132 135 132 132 121 119 110 100 97 106 104 95 87 78 75 72 66 62 59 55 50 47 49 49 53 51 57 61 74 75 75 75 74 75 68 63 61 61 63 59 57
130 133 137 140 133 129 120 113 105 100 102 96 91 87 84 84 78 70 64 57 53 53 53 53 56 52 58 53 64 60 70 78 80 80 78 75 70 65 62 59 60 56 55
136 136 142 148 140 127 118 108 106 106 101 92 89 88 87 80 75 67 56 50 50 48 52 52 56 57 59 55 63 75 73 83 83 81 77 74 72 65 61 58 58 56 56
147 151 141 141 132 125 115 112 106 102 98 94 88 86 85 79 71 62 56 49 46 44 46 51 53 46 51 63 71 80 69 92 92 87 78 77 77 69 60 56 56 53 53
156 149 143 139 132 127 121 116 110 107 102 94 90 85 83 71 65 66 64 54 47 50 50 55 60 48 52 65 68 66 77 102 94 93 81 81 81 76 68 57 53 51 51
163 160 149 139 132 125 118 115 112 107 103 100 97 92 82 67 67 72 71 55 48 60 63 62 58 49 49 59 53 69 88 103 100 92 89 83 78 83 66 57 52 51 55
146 145 141 137 136 131 126 121 113 111 106 104 101 92 87 77 75 80 72 55 47 55 61 53 47 45 45 53 68 92 103 94 88 84 79 75 71 66 62 51 53 57 56
149 147 147 145 145 143 136 129 121 116 110 107 102 96 91 86 70 70 70 54 47 55 56 52 42 40 48 73 96 102 92 89 84 80 77 73 67 61 54 51 51 64 62
155 158 156 150 146 143 139 136 129 123 116 106 97 96 96 80 68 62 68 57 48 55 58 54 49 45 57 97 97 94 89 88 80 76 76 71 65 60 53 51 46 70 60
167 163 158 153 153 152 149 148 144 136 133 120 114 115 103 83 77 85 79 64 57 58 57 57 57 51 53 108 122 99 86 79 75 71 69 64 58 56 54 52 56 56 51
169 170 168 166 168 167 168 162 155 146 142 135 128 119 104 89 91 106 94 79 70 68 66 63 66 65 58 53 78 75 27 124 64 63 57 53 45 45 46 49 52 51 57
174 176 175 170 169 170 170 167 159 155 154 146 144 125 110 96 104 108 102 90 79 73 73 68 67 67 77 64 59 94 76 273 344 51 45 38 30 35 39 49 45 43 40
181 182 178 176 178 179 189 185 177 172 170 173 162 148 127 104 107 121 117 101 92 86 86 78 72 78 78 78 75 69 74 73 98 340 11 19 16 26 31 39 42 35 24
182 186 184 184 190 197 188 189 189 186 187 179 173 159 159 147 131 129 124 110 100 97 96 93 83 81 81 85 79 77 67 59 45 95 290 341 354 9 18 28 26 24 17
186 189 189 191 197 187 192 198 198 196 189 183 179 173 170 167 163 165 156 134 113 109 122 106 91 72 81 87 85 80 78 74 47 42 335 327 337 346 7 16 10 11 4
Height
846 847 847 846 845 845 846 847 848 848 848 848 849 849 849 850 849 848 848 848 849 849 847 847 846 845 846 846 846 845 845 845 844 845 845 845 844 842 843 843 844 845 844
848 850 849 849 850 850 850 849 850 850 850 851 852 852 852 852 851 851 851 850 851 851 851 849 848 848 849 849 849 848 848 847 847 846 846 846 846 845 844 844 845 846 846
850 850 849 849 849 851 853 853 853 853 852 853 854 855 854 854 854 853 853 853 853 853 852 852 851 851 851 851 851 851 851 849 847 846 847 848 848 847 847 845 846 848 848
852 850 850 850 850 851 853 854 854 855 855 854 855 856 856 856 856 856 855 855 855 855 855 854 854 853 852 852 852 851 850 848 847 846 847 848 849 849 848 847 847 847 849
852 852 853 853 853 853 853 855 855 855 858 857 856 857 858 858 857 857 856 857 856 856 856 856 855 855 855 853 853 851 850 849 847 846 849 850 850 850 848 847 848 849 849
852 854 855 856 856 857 856 857 858 857 858 859 859 859 859 858 859 857 857 858 858 857 857 857 856 856 856 855 854 852 852 851 850 849 850 850 851 851 850 849 849 850 849
854 856 858 859 859 860 859 858 859 858 857 859 859 859 861 860 859 859 860 860 860 860 859 859 857 857 857 856 855 854 853 852 853 853 853 853 853 853 852 850 850 850 849
855 858 860 860 860 860 862 860 862 860 858 861 862 861 861 863 862 861 862 862 862 862 863 861 860 859 859 859 858 856 854 854 854 854 854 853 853 853 853 852 850 849 849
858 860 862 861 859 860 860 861 862 862 860 862 864 864 864 866 863 863 865 865 865 865 866 864 862 862 861 861 860 859 857 856 855 855 856 855 854 854 853 852 852 851 849
859 861 862 863 865 865 865 866 864 863 861 863 864 866 867 868 863 866 869 868 868 867 868 867 866 865 863 863 862 860 858 858 857 856 858 858 857 857 856 854 852 851 849
863 864 865 865 867 868 867 866 866 866 866 865 865 866 867 867 866 869 870 870 870 870 870 869 868 866 865 865 863 862 861 861 860 858 859 859 859 859 858 856 855 852 851
863 866 868 868 868 869 869 869 868 865 867 868 866 867 867 866 868 871 872 871 872 871 870 869 868 867 866 866 865 864 864 863 862 861 862 862 862 862 861 859 857 856 854
863 866 869 870 870 870 870 870 869 868 869 870 868 869 870 871 872 873 873 873 873 872 871 870 869 869 868 868 868 867 866 866 865 864 866 866 864 865 864 862 860 859 857
866 868 870 870 870 871 871 871 871 871 874 874 871 870 870 873 874 875 875 876 875 875 873 872 871 872 871 870 870 870 869 868 867 868 868 868 867 869 867 865 864 861 859
867 869 870 872 871 871 873 873 873 874 875 874 873 874 874 876 877 877 877 878 877 876 875 874 873 872 872 871 871 871 872 871 871 871 871 871 871 870 870 868 866 864 862
868 869 870 872 873 873 872 874 875 877 876 876 876 877 878 879 878 878 879 879 879 879 878 877 875 874 874 874 873 872 872 873 874 874 873 872 871 872 872 872 870 868 866
867 868 870 874 875 875 876 877 877 878 878 879 880 880 880 881 881 880 881 882 881 880 879 878 876 876 875 875 875 875 874 875 876 876 875 874 873 873 873 873 871 870 868
867 869 871 874 878 877 877 877 878 879 880 880 881 881 883 884 883 883 883 883 883 882 881 880 879 877 876 875 875 876 877 878 879 878 877 877 876 876 876 874 873 872 870
867 870 872 874 877 879 879 881 881 883 882 883 883 884 884 884 885 884 884 884 884 883 882 881 880 878 877 876 877 878 879 879 881 881 881 880 880 879 878 877 875 874 873
870 872 873 874 876 877 879 882 881 885 884 885 886 885 887 887 887 885 885 885 885 884 883 883 882 882 881 881 881 880 882 883 884 884 883 884 883 882 880 878 876 876 876
868 871 872 875 878 877 878 881 882 882 886 886 887 887 886 887 888 888 887 887 886 886 886 885 884 883 883 883 883 884 885 886 886 886 886 885 884 883 881 880 879 877 877
866 869 872 873 877 877 878 879 882 884 887 888 888 890 889 887 888 889 889 889 889 888 887 886 885 884 885 884 883 884 887 888 887 887 887 886 886 885 883 882 881 879 878
864 867 870 871 875 877 878 881 883 884 887 887 890 889 889 889 888 890 890 890 890 889 888 888 887 887 886 886 883 883 887 890 888 887 887 887 886 886 885 884 882 881 878
861 865 867 870 872 875 877 878 878 879 884 887 888 889 890 890 889 889 889 889 889 889 889 889 889 888 888 888 887 887 886 887 889 890 887 887 887 886 885 885 883 882 879
857 861 864 867 870 872 874 875 876 879 882 885 888 888 889 890 889 889 889 889 890 890 890 890 889 889 889 890 889 889 889 889 889 890 892 889 887 886 886 885 884 882 880
853 858 861 864 867 870 873 874 874 876 879 883 885 886 887 888 889 889 888 888 889 890 890 890 891 891 891 891 891 891 891 891 891 891 890 889 889 886 885 884 883 882 880